sat.trackr.live / text

‹ back to catalog

STARLINK-31116

NORAD 58947 · 2024-027S

PAYLOAD ACTIVE UNKNOWN

§ Identity

Operator
Country
US
Launch date
2024-02-10
Launch site
AFWTR
Launch vehicle
Mass (kg)
RCS (m²)

Purposes: comms

External: N2YO · Heavens-Above · Gunter

§ Orbital elements

Epoch: 2026-09-20T21:04:05.671488Z

Period
94.01 min
Inclination
53.1591°
Eccentricity
0.0001171
Mean motion
15.31691137 rev/d
Perigee alt
470.0 km
Apogee alt
471.6 km
Semi-major
6,848.9 km
B*
5.0467e-5
RAAN
121.4936°
Arg perigee
71.7873°
Mean anomaly
288.3256°
Rev number
14,723

§ Raw data

STARLINK-311161 58947U 24027S   26263.87784342  .00001201  00000+0  50467-4 0  99992 58947  53.1591 121.4936 0001171  71.7873 288.3256 15.31691137147236

JSON: /api/v1/satellites/58947 · /tle

For live sub-satellite position, see the globe view (requires WebGL).

§ Visibility from observer

Set your observer location to see the next 7 days of passes ≥ 10°. The values pass through the URL so the page stays shareable.

No JS? Fill the form by hand. The geolocation button needs JavaScript.